When you browse on this site, cookies collect data to enhance your experience and personalize the content and advertising you see.
Visit our Privacy Policy to learn more. By continuing to use the site, you agree to this use of cookies and data.
  • In Hungary
  • List of Countries
  • For 7 days
  • Water Temperature
  • Weather Map
  • News
  • Weather Widgets
  • user-avatar
    Login

    Hourly Weather Lubango

    Today, 27 February, Thursday

    Time Temperature Precipitation Wind Pressure Humidity
    00:00 +16°C° 0 mm 1 mps 607 mmHg 83%
    01:00 +16°C° 0 mm 1 mps 607 mmHg 84%
    02:00 +16°C° 0 mm 1 mps 607 mmHg 85%
    03:00 +15°C° 0 mm 0 mps 606 mmHg 85%
    04:00 +14°C° 0 mm 0 mps 606 mmHg 86%
    05:00 +15°C° 0 mm 0 mps 607 mmHg 84%
    06:00 +16°C° 0 mm 0 mps 607 mmHg 82%
    07:00 +17°C° 0 mm 0 mps 608 mmHg 79%
    08:00 +21°C° 0 mm 1 mps 609 mmHg 72%
    09:00 +23°C° 0 mm 1 mps 610 mmHg 65%
    10:00 +24°C° 0 mm 2 mps 610 mmHg 58%
    11:00 +25°C° 0.3 mm 2 mps 610 mmHg 57%
    12:00 +26°C° 0.3 mm 2 mps 610 mmHg 56%
    13:00 +25°C° 0 mm 2 mps 609 mmHg 54%
    14:00 +24°C° 0.4 mm 2 mps 608 mmHg 61%
    15:00 +23°C° 0.4 mm 2 mps 607 mmHg 69%
    16:00 +21°C° 0.4 mm 2 mps 607 mmHg 76%
    17:00 +21°C° 0.2 mm 1 mps 607 mmHg 79%
    18:00 +20°C° 0.2 mm 1 mps 607 mmHg 82%
    19:00 +19°C° 0.2 mm 1 mps 607 mmHg 85%
    20:00 +19°C° 0 mm 1 mps 607 mmHg 87%
    21:00 +16°C° 0 mm 0 mps 608 mmHg 88%
    22:00 +16°C° 0 mm 0 mps 608 mmHg 90%
    23:00 +16°C° 0 mm 0 mps 608 mmHg 89%

    Tomorrow, 28 February, Friday

    Time Temperature Precipitation Wind Pressure Humidity
    00:00 +16°C° 0 mm 0 mps 607 mmHg 89%
    01:00 +16°C° 0 mm 0 mps 607 mmHg 88%
    02:00 +15°C° 0 mm 0 mps 607 mmHg 87%
    03:00 +15°C° 0 mm 0 mps 607 mmHg 87%
    04:00 +15°C° 0 mm 0 mps 606 mmHg 86%
    05:00 +15°C° 0 mm 0 mps 607 mmHg 84%
    06:00 +16°C° 0 mm 0 mps 607 mmHg 82%
    07:00 +16°C° 0 mm 0 mps 608 mmHg 81%
    08:00 +20°C° 0.1 mm 1 mps 609 mmHg 75%
    09:00 +21°C° 0.1 mm 1 mps 609 mmHg 69%
    10:00 +23°C° 0.1 mm 2 mps 610 mmHg 64%
    11:00 +23°C° 0.6 mm 2 mps 610 mmHg 64%
    12:00 +23°C° 0.6 mm 2 mps 610 mmHg 65%
    13:00 +24°C° 0.6 mm 2 mps 609 mmHg 65%
    14:00 +22°C° 0.5 mm 3 mps 609 mmHg 65%
    15:00 +22°C° 0.5 mm 3 mps 608 mmHg 66%
    16:00 +21°C° 0.5 mm 3 mps 607 mmHg 66%
    17:00 +20°C° 0 mm 3 mps 607 mmHg 71%
    18:00 +18°C° 0 mm 2 mps 607 mmHg 75%
    19:00 +17°C° 0 mm 2 mps 607 mmHg 80%
    20:00 +16°C° 0 mm 1 mps 607 mmHg 79%
    21:00 +16°C° 0 mm 1 mps 608 mmHg 78%
    22:00 +16°C° 0 mm 1 mps 608 mmHg 76%
    23:00 +16°C° 0 mm 1 mps 608 mmHg 74%

    Day after tomorrow, 29 February, Saturday

    Time Temperature Precipitation Wind Pressure Humidity
    00:00 +15°C° 0 mm 1 mps 607 mmHg 72%
    01:00 +15°C° 0 mm 1 mps 607 mmHg 70%
    02:00 +15°C° 0 mm 1 mps 607 mmHg 64%
    03:00 +15°C° 0 mm 1 mps 606 mmHg 57%
    04:00 +14°C° 0 mm 1 mps 606 mmHg 50%
    05:00 +14°C° 0 mm 1 mps 607 mmHg 48%
    06:00 +14°C° 0 mm 1 mps 607 mmHg 45%
    07:00 +15°C° 0 mm 1 mps 607 mmHg 43%
    08:00 +16°C° 0 mm 1 mps 608 mmHg 41%
    09:00 +18°C° 0 mm 2 mps 609 mmHg 39%
    10:00 +20°C° 0 mm 2 mps 610 mmHg 37%
    11:00 +21°C° 0 mm 2 mps 610 mmHg 35%
    12:00 +23°C° 0 mm 2 mps 610 mmHg 34%
    13:00 +24°C° 0 mm 2 mps 610 mmHg 33%
    14:00 +23°C° 0 mm 2 mps 610 mmHg 37%
    15:00 +23°C° 0 mm 2 mps 609 mmHg 40%
    16:00 +21°C° 0 mm 2 mps 608 mmHg 44%
    17:00 +20°C° 0 mm 2 mps 608 mmHg 48%
    18:00 +18°C° 0 mm 2 mps 608 mmHg 52%
    19:00 +18°C° 0 mm 1 mps 608 mmHg 56%
    20:00 +18°C° 0 mm 1 mps 608 mmHg 59%
    21:00 +16°C° 0 mm 1 mps 608 mmHg 63%
    22:00 +16°C° 0 mm 1 mps 609 mmHg 67%
    23:00 +15°C° 0 mm 1 mps 609 mmHg 70%

    1 March, Sunday

    Time Temperature Precipitation Wind Pressure Humidity
    00:00 +15°C° 0 mm 1 mps 608 mmHg 73%
    01:00 +14°C° 0 mm 1 mps 608 mmHg 76%
    02:00 +14°C° 0 mm 1 mps 608 mmHg 75%
    03:00 +13°C° 0 mm 1 mps 607 mmHg 73%
    04:00 +13°C° 0 mm 1 mps 607 mmHg 71%
    05:00 +13°C° 0 mm 1 mps 607 mmHg 68%
    06:00 +14°C° 0 mm 1 mps 608 mmHg 66%
    07:00 +14°C° 0 mm 1 mps 608 mmHg 63%
    08:00 +16°C° 0 mm 2 mps 609 mmHg 56%
    09:00 +18°C° 0 mm 2 mps 610 mmHg 49%
    10:00 +21°C° 0 mm 3 mps 611 mmHg 42%
    11:00 +22°C° 0 mm 3 mps 611 mmHg 41%
    12:00 +22°C° 0 mm 3 mps 611 mmHg 39%
    13:00 +23°C° 0 mm 4 mps 611 mmHg 38%
    14:00 +23°C° 0 mm 4 mps 610 mmHg 40%
    15:00 +22°C° 0 mm 4 mps 610 mmHg 42%
    16:00 +22°C° 0 mm 4 mps 609 mmHg 44%
    17:00 +20°C° 0 mm 3 mps 609 mmHg 50%
    18:00 +18°C° 0 mm 3 mps 608 mmHg 55%
    19:00 +16°C° 0 mm 2 mps 608 mmHg 61%
    20:00 +16°C° 0 mm 2 mps 608 mmHg 60%
    21:00 +16°C° 0 mm 1 mps 608 mmHg 59%
    22:00 +16°C° 0 mm 1 mps 608 mmHg 57%
    23:00 +16°C° 0 mm 1 mps 608 mmHg 55%

    2 March, Monday

    Time Temperature Precipitation Wind Pressure Humidity
    00:00 +16°C° 0 mm 1 mps 608 mmHg 52%
    01:00 +16°C° 0 mm 1 mps 608 mmHg 49%
    02:00 +16°C° 0 mm 1 mps 608 mmHg 46%
    03:00 +16°C° 0 mm 1 mps 608 mmHg 43%
    04:00 +16°C° 0 mm 1 mps 607 mmHg 40%
    05:00 +16°C° 0 mm 1 mps 608 mmHg 40%
    06:00 +16°C° 0 mm 1 mps 608 mmHg 41%
    07:00 +16°C° 0 mm 1 mps 608 mmHg 42%
    08:00 +19°C° 0 mm 1 mps 609 mmHg 39%
    09:00 +20°C° 0 mm 2 mps 610 mmHg 37%
    10:00 +23°C° 0 mm 2 mps 611 mmHg 35%
    11:00 +23°C° 0 mm 2 mps 611 mmHg 36%
    12:00 +23°C° 0 mm 2 mps 610 mmHg 37%
    13:00 +24°C° 0 mm 2 mps 610 mmHg 38%
    14:00 +24°C° 0 mm 2 mps 609 mmHg 38%
    15:00 +24°C° 0 mm 3 mps 609 mmHg 38%
    16:00 +24°C° 0 mm 3 mps 609 mmHg 38%
    17:00 +21°C° 0 mm 2 mps 608 mmHg 43%
    18:00 +19°C° 0 mm 2 mps 608 mmHg 49%
    19:00 +17°C° 0 mm 2 mps 607 mmHg 54%
    20:00 +16°C° 0 mm 2 mps 607 mmHg 55%
    21:00 +16°C° 0 mm 2 mps 608 mmHg 55%
    22:00 +16°C° 0 mm 1 mps 608 mmHg 55%
    23:00 +15°C° 0 mm 1 mps 608 mmHg 49%

    3 March, Tuesday

    Time Temperature Precipitation Wind Pressure Humidity
    00:00 +15°C° 0 mm 2 mps 608 mmHg 43%
    01:00 +15°C° 0 mm 2 mps 607 mmHg 37%
    02:00 +15°C° 0 mm 2 mps 607 mmHg 35%
    03:00 +15°C° 0 mm 2 mps 607 mmHg 34%
    04:00 +15°C° 0 mm 2 mps 607 mmHg 33%
    05:00 +15°C° 0 mm 1 mps 607 mmHg 33%
    06:00 +16°C° 0 mm 1 mps 608 mmHg 34%
    07:00 +16°C° 0 mm 1 mps 608 mmHg 35%
    08:00 +19°C° 0 mm 1 mps 609 mmHg 35%
    09:00 +20°C° 0 mm 1 mps 609 mmHg 35%
    10:00 +21°C° 0 mm 1 mps 610 mmHg 35%
    11:00 +23°C° 0 mm 1 mps 610 mmHg 32%
    12:00 +25°C° 0 mm 2 mps 611 mmHg 29%
    13:00 +26°C° 0 mm 2 mps 611 mmHg 26%
    14:00 +26°C° 0 mm 2 mps 610 mmHg 27%
    15:00 +25°C° 0 mm 3 mps 609 mmHg 29%
    16:00 +24°C° 0 mm 3 mps 609 mmHg 31%
    17:00 +21°C° 0 mm 2 mps 608 mmHg 37%
    18:00 +19°C° 0 mm 2 mps 608 mmHg 42%
    19:00 +16°C° 0 mm 2 mps 607 mmHg 47%
    20:00 +16°C° 0 mm 1 mps 607 mmHg 47%
    21:00 +16°C° 0 mm 1 mps 608 mmHg 47%
    22:00 +15°C° 0 mm 1 mps 608 mmHg 46%
    23:00 +15°C° 0 mm 1 mps 608 mmHg 44%
    Show more